Location: Beekmeers
(50.8953°N, 3.6968°E)
Time: 13:02:50
(UTC+00:00)

SL-24 R/B - Pass Details

Date: 23 May 2024
Orbit: 716 x 1115 km, 91.9° (Epoch: 16 June)

Event Time Altitude Azimuth Distance (km) Brightness Sun altitude
Exits shadow 02:28:15 - 183° (S) 2,539 6.7 -9.7°
Reaches altitude 10° 02:29:00 10° 185° (S) 2,234 6.4 -9.6°
Maximum altitude 02:33:51 66° 267° (W) 786 4.4 -9.1°
Drops below altitude 10° 02:38:40 10° 351° (N) 2,219 7.5 -8.6°
Sets 02:41:00 0° 354° (N) 3,161 8.4 -8.4°
